Date String (YYYY-MM-DD hh:mm:ss) UTC,Instrument flags,Ambient pressure (hPa),Sample flow (lpm),Bypass flow (lpm),Sample temperature (°C),Ambient temperature (°C),ASC tube jacket temperature (°C),LED temperature (°C),Box temperature (°C),Sample RH (%),Span deviation,Mass concentration (μg/m³),Mass concentration (μg/m³),Mass concentration (μg/m³)
DateTimeUTC,F1_M11,P_M11,Q1_M11,Q2_M11,T1_M11,T2_M11,T3_M11,T4_M11,T5_M11,U1_M11,ZSPAN_M11,X0_M11,X2_M11,X1_M11
2022-10-10 17:00:00,,0828.0,4.99,0.00,30.3,29.2,00.0,38.9,32.1,12.1,0000.0,0007.59,0003.92,0003.60
2022-10-10 17:01:00,,0827.9,5.00,0.00,30.3,29.2,00.0,38.9,32.2,12.9,0000.0,0007.62,0003.93,0003.61
2022-10-10 17:02:00,,0827.9,5.01,0.00,30.3,29.2,00.0,38.9,32.2,13.1,0000.0,0007.99,0003.99,0003.64
2022-10-10 17:03:00,,0827.9,5.00,0.00,30.3,29.2,00.0,39.0,32.2,13.3,0000.0,0008.07,0004.03,0003.67
2022-10-10 17:04:00,,0828.0,5.00,0.00,30.3,29.3,00.0,39.0,32.2,13.4,0000.0,0007.74,0004.05,0003.70
2022-10-10 17:05:00,,0827.8,5.01,0.00,30.4,29.3,00.0,39.0,32.2,13.6,0000.0,0008.24,0004.09,0003.73
2022-10-10 17:06:00,,0827.9,4.99,0.00,30.4,29.3,00.0,39.0,32.2,13.9,0000.0,0008.44,0004.12,0003.75
2022-10-10 17:07:00,,0827.9,5.01,0.00,30.4,29.4,00.0,39.0,32.3,14.2,0000.0,0008.57,0004.16,0003.78
2022-10-10 17:08:00,,0827.8,5.00,0.00,30.4,28.4,00.0,39.0,32.2,14.3,0000.0,0009.79,0004.19,0003.82
2022-10-10 17:09:00,,0827.8,4.99,0.00,30.3,27.0,00.0,39.0,31.9,14.2,0000.0,0009.99,0004.23,0003.86
2022-10-10 17:10:00,,0827.7,5.01,0.00,30.2,26.7,00.0,38.9,31.9,13.7,0000.0,0010.11,0004.29,0003.89
2022-10-10 17:11:00,,0827.7,5.01,0.00,30.2,27.0,00.0,38.9,31.8,13.9,0000.0,0010.30,0004.34,0003.91
2022-10-10 17:12:00,,0827.7,4.99,0.00,30.1,27.3,00.0,38.9,31.7,13.4,0000.0,0010.65,0004.40,0003.94
2022-10-10 17:13:00,,0827.7,5.00,0.00,30.0,27.6,00.0,38.8,31.7,13.7,0000.0,0010.52,0004.39,0003.93
2022-10-10 17:14:00,,0827.7,5.00,0.00,30.0,27.8,00.0,38.8,31.7,13.8,0000.0,0009.97,0004.36,0003.94
2022-10-10 17:15:00,,0827.7,5.00,0.00,30.0,28.0,00.0,38.8,31.7,14.0,0000.0,0009.91,0004.34,0003.93
2022-10-10 17:16:00,,0827.7,5.01,0.00,30.0,28.2,00.0,38.8,31.7,13.6,0000.0,0009.37,0004.35,0003.93
2022-10-10 17:17:00,,0827.8,4.99,0.00,30.0,28.4,00.0,38.8,31.7,13.1,0000.0,0009.19,0004.33,0003.91
2022-10-10 17:18:00,,0827.7,5.00,0.00,30.0,28.5,00.0,38.8,31.7,12.5,0000.0,0009.05,0004.31,0003.89
2022-10-10 17:19:00,,0827.7,5.00,0.00,30.0,28.6,00.0,38.7,31.8,12.7,0000.0,0008.18,0004.30,0003.87
2022-10-10 17:20:00,,0827.7,5.00,0.00,30.0,28.7,00.0,38.7,31.8,11.9,0000.0,0008.29,0004.28,0003.84
2022-10-10 17:21:00,,0827.7,5.01,0.00,30.0,28.8,00.0,38.7,31.9,13.3,0000.0,0008.50,0004.26,0003.82
2022-10-10 17:22:00,,0827.7,4.99,0.00,30.0,28.8,00.0,38.8,31.9,14.4,0000.0,0008.94,0004.26,0003.81
2022-10-10 17:23:00,,0827.7,5.01,0.00,30.1,28.9,00.0,38.8,31.9,14.4,0000.0,0008.85,0004.25,0003.81
2022-10-10 17:24:00,,0827.7,4.99,0.00,30.1,28.9,00.0,38.8,31.9,13.0,0000.0,0009.32,0004.23,0003.80
2022-10-10 17:25:00,,0827.6,5.00,0.00,30.1,29.0,00.0,38.8,31.9,13.6,0000.0,0009.31,0004.23,0003.79
2022-10-10 17:26:00,,0827.6,5.00,0.00,30.1,29.0,00.0,38.8,32.0,14.2,0000.0,0009.32,0004.24,0003.78
2022-10-10 17:27:00,,0827.6,5.00,0.00,30.1,29.0,00.0,38.8,32.0,14.1,0000.0,0009.59,0004.23,0003.79
2022-10-10 17:28:00,,0827.6,5.01,0.00,30.2,29.1,00.0,38.8,32.0,14.5,0000.0,0009.98,0004.24,0003.79
2022-10-10 17:29:00,,0827.5,4.99,0.00,30.2,29.1,00.0,38.8,32.0,14.6,0000.0,0010.02,0004.27,0003.81
2022-10-10 17:30:00,,0827.5,5.01,0.00,30.2,29.1,00.0,38.9,32.0,13.4,0000.0,0009.85,0004.31,0003.82
2022-10-10 17:31:00,,0827.5,4.99,0.00,30.2,29.2,00.0,38.9,32.1,13.7,0000.0,0010.08,0004.34,0003.83
2022-10-10 17:32:00,,0827.5,5.00,0.00,30.2,28.4,00.0,38.9,32.0,13.7,0000.0,0010.25,0004.34,0003.83
2022-10-10 17:33:00,,0827.5,5.00,0.00,30.2,27.0,00.0,38.8,31.7,14.7,0000.0,0009.94,0004.32,0003.83
2022-10-10 17:34:00,,0827.5,4.99,0.00,30.1,26.6,00.0,38.8,31.7,14.8,0000.0,0009.71,0004.28,0003.82
2022-10-10 17:35:00,,0827.5,5.01,0.00,30.0,26.9,00.0,38.7,31.6,13.6,0000.0,0009.17,0004.28,0003.82
2022-10-10 17:36:00,,0827.5,5.00,0.00,29.9,27.2,00.0,38.7,31.6,12.3,0000.0,0009.18,0004.27,0003.80
2022-10-10 17:37:00,,0827.5,5.00,0.00,29.9,27.6,00.0,38.7,31.6,11.8,0000.0,0009.31,0004.23,0003.77
2022-10-10 17:38:00,,0827.4,4.99,0.00,29.9,27.8,00.0,38.7,31.6,12.1,0000.0,0009.93,0004.19,0003.74
2022-10-10 17:39:00,,0827.5,4.99,0.00,29.9,28.0,00.0,38.7,31.7,12.5,0000.0,0009.54,0004.19,0003.72
2022-10-10 17:40:00,,0827.5,5.00,0.00,29.9,28.2,00.0,38.7,31.7,12.6,0000.0,0009.56,0004.16,0003.69
2022-10-10 17:41:00,,0827.4,5.00,0.00,29.9,28.4,00.0,38.7,31.7,12.4,0000.0,0009.27,0004.09,0003.66
2022-10-10 17:42:00,,0827.4,4.99,0.00,29.9,28.5,00.0,38.7,31.8,13.2,0000.0,0008.82,0004.05,0003.65
2022-10-10 17:43:00,,0827.4,5.01,0.00,29.9,28.6,00.0,38.7,31.7,13.3,0000.0,0008.43,0004.03,0003.65
2022-10-10 17:44:00,,0827.3,5.00,0.00,29.9,28.6,00.0,38.7,31.7,13.5,0000.0,0008.47,0004.02,0003.63
2022-10-10 17:45:00,,0827.3,5.00,0.00,30.0,28.7,00.0,38.7,31.8,13.2,0000.0,0008.57,0004.01,0003.62
2022-10-10 17:46:00,,0827.3,5.00,0.00,30.0,28.8,00.0,38.7,31.8,12.9,0000.0,0008.55,0003.99,0003.61
2022-10-10 17:47:00,,0827.4,4.99,0.00,30.0,28.9,00.0,38.7,31.9,12.3,0000.0,0008.59,0003.99,0003.61
2022-10-10 17:48:00,,0827.3,5.01,0.00,30.0,28.9,00.0,38.7,31.9,12.2,0000.0,0008.37,0004.00,0003.62
2022-10-10 17:49:00,,0827.3,4.99,0.00,30.1,29.0,00.0,38.7,31.9,12.2,0000.0,0007.36,0003.99,0003.63
2022-10-10 17:50:00,,0827.3,5.00,0.00,30.1,29.0,00.0,38.7,32.0,12.3,0000.0,0007.30,0003.98,0003.62
2022-10-10 17:51:00,,0827.2,5.00,0.00,30.1,28.4,00.0,38.7,32.0,11.9,0000.0,0007.13,0003.95,0003.61
2022-10-10 17:52:00,,0827.2,4.99,0.00,30.1,26.9,00.0,38.7,31.8,12.4,0000.0,0008.01,0003.94,0003.61
2022-10-10 17:53:00,,0827.2,5.00,0.00,30.0,26.4,00.0,38.6,31.7,12.1,0000.0,0008.29,0003.95,0003.60
2022-10-10 17:54:00,,0827.2,5.00,0.00,29.9,26.6,00.0,38.6,31.6,12.1,0000.0,0008.21,0003.94,0003.59
2022-10-10 17:55:00,,0827.1,5.00,0.00,29.8,27.0,00.0,38.6,31.5,12.4,0000.0,0007.86,0003.91,0003.58
2022-10-10 17:56:00,,0827.2,5.01,0.00,29.8,27.3,00.0,38.6,31.5,12.0,0000.0,0007.71,0003.91,0003.57
2022-10-10 17:57:00,,0827.0,4.99,0.00,29.8,27.6,00.0,38.5,31.5,11.8,0000.0,0007.68,0003.90,0003.56
2022-10-10 17:58:00,,0827.4,5.00,0.00,29.8,27.8,00.0,38.5,31.5,11.6,0000.0,0008.06,0003.87,0003.55
2022-10-10 17:59:00,,0827.3,5.00,0.00,29.8,28.0,00.0,38.5,31.5,11.6,0000.0,0008.61,0003.86,0003.54
